QPF
0.01 0.01 0.01 0.02 0.02 0.02 0.03 0.03 0.03 0.02 0.01 0.01 0.01 0.01 0.01 0.01 0.01 0.01 0.02 0.01 0.02 0.02 0.02 0.01 0.01 0.01 0.02 0.02 0.03 0.04 0.03 0.04 0.04 0.03 0.02 0.02 0.01 0.01 0.01 0.01 0.01 0.02 0.03 0.02
0.01 0.01 0.01 0.01 0.01 0.01 0.02 0.02 0.02 0.02 0.01 0.01 0.01 0.01 0.01 0.01 0.01 0.01 0.01 0.01 0.01 0.02 0.03 0.02 0.02 0.02 0.02 0.02 0.03 0.03 0.03 0.03 0.03 0.04 0.03 0.02 0.01 0.01 0.01 0.01 0.01 0.01 0.01 0.01
0.02 0.01 0.02 0.03 0.02 0.02 0.02 0.02 0.02 0.02 0.02 0.02 0.01 0.01 0.01 0.01 0.01 0.01 0.01 0.01 0.01 0.01 0.02 0.02 0.02 0.02 0.01 0.02 0.02 0.03 0.03 0.03 0.03 0.03 0.03 0.03 0.02 0.01 0.01 0.01 0.01 0.01 0.01 0.01
0.03 0.02 0.03 0.02 0.02 0.02 0.02 0.02 0.02 0.02 0.02 0.02 0.01 0.01 0.01 0.01 0.01 0.01 0.01 0.01 0.01 0.01 0.01 0.02 0.02 0.02 0.01 0.01 0.02 0.02 0.02 0.03 0.03 0.02 0.03 0.02 0.02 0.02 0.01 0.01 0.01 0.01 0.01 0.01
0.04 0.03 0.02 0.01 0.01 0.02 0.02 0.03 0.02 0.02 0.02 0.01 0.01 0.01 0.01 0.01 0.01 0.01 0.01 0.01 0.01 0.01 0.01 0.01 0.01 0.01 0.01 0.01 0.01 0.01 0.02 0.02 0.03 0.02 0.02 0.02 0.02 0.02 0.01 0.01 0.01 0.01 0.01 0.01
0.06 0.05 0.02 0.01 0.01 0.01 0.02 0.02 0.01 0.01 0.01 0.01 0.01 0.01 0.01 0.01 0.01 0.01 0.01 0.01 0.01 0.01 0.01 0.00 0.01 0.01 0.01 0.01 0.01 0.01 0.01 0.01 0.02 0.02 0.02 0.02 0.01 0.01 0.01 0.01 0.01 0.01 0.01 0.01
0.05 0.05 0.04 0.02 0.01 0.01 0.02 0.03 0.01 0.01 0.01 0.01 0.02 0.02 0.01 0.01 0.01 0.01 0.01 0.01 0.01 0.00 0.00 0.00 0.00 0.00 0.01 0.01 0.01 0.01 0.01 0.01 0.01 0.01 0.02 0.02 0.02 0.01 0.01 0.01 0.01 0.01 0.01 0.01
0.04 0.05 0.04 0.02 0.01 0.03 0.04 0.03 0.02 0.01 0.01 0.01 0.01 0.01 0.01 0.01 0.01 0.01 0.01 0.01 0.01 0.00 0.00 0.00 0.00 0.00 0.00 0.01 0.01 0.01 0.01 0.01 0.01 0.00 0.01 0.01 0.01 0.01 0.01 0.01 0.01 0.01 0.01 0.01
0.04 0.05 0.03 0.03 0.04 0.04 0.04 0.03 0.02 0.01 0.01 0.01 0.01 0.01 0.01 0.01 0.01 0.01 0.01 0.00 0.00 0.00 0.00 0.00 0.00 0.00 0.00 0.01 0.01 0.01 0.01 0.01 0.01 0.00 0.00 0.01 0.01 0.01 0.01 0.01 0.01 0.01 0.01 0.01
0.05 0.04 0.03 0.03 0.03 0.02 0.02 0.02 0.02 0.01 0.01 0.01 0.01 0.01 0.01 0.01 0.01 0.00 0.00 0.00 0.00 0.00 0.00 0.00 0.00 0.00 0.00 0.00 0.01 0.00 0.01 0.01 0.01 0.00 0.00 0.00 0.01 0.01 0.01 0.01 0.01 0.01 0.01 0.01
0.03 0.03 0.02 0.02 0.02 0.01 0.01 0.01 0.01 0.01 0.01 0.01 0.01 0.01 0.01 0.00 0.00 0.00 0.00 0.00 0.00 0.00 0.00 0.00 0.00 0.00 0.00 0.00 0.00 0.00 0.01 0.01 0.01 0.01 0.00 0.00 0.00 0.00 0.01 0.01 0.01 0.02 0.02 0.01
0.03 0.03 0.03 0.02 0.01 0.01 0.01 0.01 0.02 0.01 0.01 0.01 0.01 0.01 0.01 0.00 0.00 0.01 0.01 0.01 0.00 0.00 0.00 0.00 0.00 0.00 0.00 0.00 0.00 0.01 0.01 0.01 0.01 0.01 0.01 0.01 0.01 0.00 0.00 0.01 0.01 0.01 0.02 0.02
0.03 0.03 0.02 0.02 0.01 0.01 0.01 0.01 0.01 0.01 0.01 0.01 0.01 0.01 0.01 0.01 0.01 0.01 0.01 0.01 0.01 0.01 0.01 0.01 0.00 0.00 0.00 0.00 0.00 0.01 0.01 0.01 0.01 0.01 0.01 0.01 0.01 0.01 0.01 0.01 0.01 0.01 0.01 0.01
0.03 0.02 0.01 0.01 0.01 0.01 0.01 0.01 0.01 0.01 0.01 0.01 0.01 0.01 0.02 0.02 0.01 0.01 0.01 0.01 0.01 0.01 0.01 0.01 0.01 0.01 0.01 0.01 0.01 0.01 0.01 0.01 0.01 0.01 0.01 0.01 0.01 0.01 0.01 0.01 0.01 0.01 0.01 0.01
0.02 0.01 0.01 0.01 0.01 0.01 0.01 0.01 0.01 0.01 0.01 0.01 0.01 0.02 0.02 0.02 0.02 0.01 0.01 0.01 0.01 0.01 0.01 0.01 0.01 0.01 0.01 0.01 0.01 0.01 0.01 0.01 0.01 0.01 0.01 0.01 0.01 0.01 0.01 0.01 0.01 0.01 0.01 0.01
0.02 0.01 0.01 0.01 0.01 0.01 0.01 0.01 0.01 0.02 0.02 0.02 0.02 0.02 0.02 0.02 0.02 0.02 0.02 0.02 0.02 0.02 0.01 0.01 0.01 0.01 0.01 0.01 0.01 0.01 0.01 0.01 0.01 0.01 0.01 0.01 0.01 0.01 0.01 0.01 0.01 0.01 0.01 0.01
0.02 0.01 0.01 0.01 0.01 0.01 0.01 0.01 0.02 0.02 0.02 0.02 0.02 0.02 0.03 0.03 0.03 0.02 0.02 0.02 0.02 0.02 0.02 0.02 0.02 0.01 0.01 0.01 0.01 0.01 0.01 0.01 0.01 0.01 0.01 0.01 0.01 0.01 0.01 0.01 0.01 0.01 0.01 0.00
0.02 0.02 0.02 0.02 0.01 0.01 0.01 0.01 0.01 0.02 0.02 0.03 0.03 0.03 0.03 0.03 0.03 0.03 0.02 0.02 0.02 0.02 0.02 0.02 0.02 0.02 0.01 0.01 0.01 0.01 0.01 0.01 0.01 0.01 0.01 0.01 0.01 0.01 0.01 0.01 0.01 0.01 0.01 0.01
0.01 0.01 0.01 0.01 0.01 0.01 0.01 0.01 0.01 0.02 0.02 0.03 0.03 0.03 0.03 0.03 0.03 0.03 0.02 0.02 0.02 0.02 0.02 0.02 0.02 0.01 0.01 0.01 0.01 0.01 0.01 0.01 0.01 0.01 0.01 0.01 0.01 0.01 0.01 0.01 0.01 0.01 0.01 0.01
0.01 0.01 0.01 0.01 0.01 0.01 0.01 0.01 0.01 0.02 0.02 0.03 0.03 0.03 0.03 0.02 0.02 0.02 0.02 0.02 0.02 0.02 0.02 0.01 0.01 0.01 0.01 0.01 0.01 0.01 0.01 0.01 0.01 0.01 0.01 0.01 0.01 0.01 0.01 0.01 0.01 0.01 0.01 0.01
0.01 0.01 0.01 0.01 0.01 0.01 0.01 0.01 0.01 0.02 0.02 0.02 0.02 0.02 0.02 0.02 0.02 0.02 0.02 0.02 0.02 0.02 0.01 0.01 0.01 0.01 0.01 0.02 0.02 0.01 0.01 0.01 0.01 0.01 0.01 0.01 0.01 0.01 0.01 0.01 0.01 0.01 0.01 0.00
0.01 0.01 0.01 0.01 0.01 0.01 0.01 0.01 0.01 0.02 0.02 0.01 0.01 0.01 0.01 0.01 0.01 0.01 0.01 0.02 0.02 0.02 0.02 0.01 0.02 0.02 0.02 0.02 0.02 0.01 0.01 0.01 0.01 0.01 0.01 0.01 0.01 0.01 0.01 0.01 0.01 0.01 0.01 0.00
0.02 0.02 0.02 0.02 0.02 0.01 0.01 0.01 0.01 0.01 0.01 0.01 0.01 0.01 0.01 0.01 0.01 0.02 0.02 0.02 0.02 0.02 0.02 0.02 0.02 0.02 0.02 0.02 0.02 0.01 0.01 0.01 0.01 0.01 0.01 0.01 0.01 0.01 0.01 0.01 0.01 0.01 0.01 0.00
0.02 0.02 0.02 0.02 0.01 0.01 0.01 0.00 0.00 0.00 0.01 0.01 0.01 0.01 0.01 0.01 0.01 0.01 0.01 0.01 0.02 0.02 0.02 0.02 0.02 0.02 0.02 0.02 0.01 0.01 0.01 0.01 0.01 0.01 0.01 0.01 0.01 0.02 0.01 0.01 0.01 0.01 0.01 0.00
0.01 0.01 0.01 0.01 0.01 0.01 0.01 0.01 0.00 0.00 0.00 0.01 0.01 0.01 0.01 0.01 0.01 0.01 0.01 0.01 0.01 0.01 0.01 0.01 0.02 0.02 0.02 0.01 0.01 0.01 0.01 0.01 0.02 0.02 0.02 0.02 0.02 0.01 0.01 0.01 0.01 0.01 0.01 0.01
0.01 0.01 0.01 0.01 0.01 0.01 0.01 0.01 0.01 0.00 0.00 0.01 0.01 0.01 0.01 0.01 0.01 0.01 0.01 0.01 0.01 0.01 0.01 0.01 0.01 0.01 0.01 0.01 0.01 0.01 0.01 0.02 0.02 0.02 0.02 0.02 0.02 0.02 0.01 0.01 0.01 0.01 0.01 0.01
0.01 0.01 0.01 0.01 0.00 0.01 0.01 0.01 0.01 0.01 0.01 0.01 0.01 0.01 0.01 0.01 0.01 0.01 0.01 0.01 0.01 0.01 0.01 0.01 0.01 0.01 0.01 0.01 0.01 0.01 0.01 0.01 0.02 0.02 0.02 0.02 0.02 0.02 0.02 0.01 0.01 0.01 0.01 0.01
MSLP
1016.06 1016.39 1016.95 1017.73 1018.71 1019.84 1021.09 1022.43 1023.82 1025.21 1026.56 1027.82 1028.93 1029.84 1030.52 1030.93 1031.06 1030.93 1030.57 1030.03 1029.39 1028.70 1028.06 1027.49 1027.03 1026.68 1026.43 1026.23 1026.06 1025.86 1025.62 1025.34 1025.03 1024.70 1024.40 1024.15 1023.96 1023.84 1023.78 1023.74 1023.67 1023.53 1023.30 1022.95
1016.30 1016.94 1017.87 1019.03 1020.39 1021.88 1023.42 1024.97 1026.45 1027.84 1029.08 1030.16 1031.04 1031.70 1032.14 1032.34 1032.32 1032.10 1031.70 1031.16 1030.54 1029.88 1029.24 1028.64 1028.10 1027.62 1027.21 1026.83 1026.47 1026.10 1025.73 1025.34 1024.96 1024.60 1024.28 1024.04 1023.86 1023.74 1023.66 1023.59 1023.49 1023.33 1023.06 1022.68
1016.91 1017.89 1019.17 1020.70 1022.39 1024.16 1025.91 1027.56 1029.05 1030.34 1031.39 1032.22 1032.79 1033.15 1033.30 1033.27 1033.07 1032.74 1032.30 1031.77 1031.19 1030.58 1029.96 1029.36 1028.79 1028.24 1027.72 1027.22 1026.73 1026.26 1025.79 1025.34 1024.93 1024.56 1024.25 1024.01 1023.83 1023.71 1023.60 1023.49 1023.34 1023.12 1022.80 1022.39
1018.06 1019.35 1020.94 1022.76 1024.70 1026.65 1028.49 1030.15 1031.55 1032.65 1033.45 1033.97 1034.21 1034.24 1034.10 1033.82 1033.45 1033.01 1032.52 1032.01 1031.47 1030.92 1030.35 1029.78 1029.21 1028.63 1028.06 1027.49 1026.94 1026.39 1025.88 1025.41 1024.99 1024.63 1024.33 1024.10 1023.92 1023.76 1023.62 1023.45 1023.23 1022.94 1022.56 1022.10
1019.82 1021.38 1023.20 1025.21 1027.28 1029.29 1031.11 1032.66 1033.89 1034.75 1035.26 1035.44 1035.36 1035.07 1034.65 1034.15 1033.62 1033.09 1032.58 1032.07 1031.58 1031.09 1030.58 1030.06 1029.50 1028.93 1028.33 1027.73 1027.14 1026.57 1026.04 1025.57 1025.15 1024.81 1024.52 1024.29 1024.09 1023.90 1023.70 1023.46 1023.16 1022.79 1022.34 1021.83
1022.18 1023.92 1025.88 1027.96 1030.03 1031.97 1033.67 1035.03 1036.01 1036.60 1036.80 1036.68 1036.30 1035.74 1035.09 1034.42 1033.77 1033.17 1032.63 1032.15 1031.70 1031.26 1030.80 1030.31 1029.78 1029.21 1028.60 1027.98 1027.38 1026.80 1026.27 1025.80 1025.40 1025.06 1024.78 1024.54 1024.31 1024.08 1023.81 1023.50 1023.12 1022.67 1022.16 1021.60
1025.03 1026.85 1028.82 1030.84 1032.80 1034.56 1036.03 1037.15 1037.85 1038.16 1038.08 1037.70 1037.08 1036.32 1035.51 1034.72 1033.99 1033.36 1032.82 1032.35 1031.93 1031.52 1031.09 1030.62 1030.10 1029.52 1028.91 1028.27 1027.65 1027.06 1026.53 1026.06 1025.67 1025.34 1025.05 1024.79 1024.53 1024.25 1023.92 1023.54 1023.09 1022.58 1022.02 1021.43
1028.18 1029.96 1031.82 1033.67 1035.40 1036.90 1038.09 1038.91 1039.34 1039.38 1039.08 1038.49 1037.71 1036.83 1035.94 1035.09 1034.33 1033.69 1033.15 1032.70 1032.29 1031.90 1031.47 1031.00 1030.46 1029.86 1029.22 1028.57 1027.92 1027.32 1026.77 1026.30 1025.90 1025.56 1025.26 1024.98 1024.69 1024.37 1023.99 1023.55 1023.06 1022.51 1021.92 1021.31
1031.40 1033.04 1034.68 1036.26 1037.67 1038.84 1039.71 1040.24 1040.41 1040.23 1039.76 1039.06 1038.20 1037.27 1036.36 1035.51 1034.76 1034.13 1033.61 1033.16 1032.76 1032.35 1031.90 1031.40 1030.82 1030.19 1029.51 1028.82 1028.15 1027.52 1026.95 1026.46 1026.05 1025.69 1025.38 1025.07 1024.75 1024.40 1023.99 1023.52 1023.00 1022.43 1021.84 1021.25
1034.46 1035.86 1037.20 1038.43 1039.48 1040.30 1040.85 1041.10 1041.05 1040.71 1040.14 1039.39 1038.53 1037.62 1036.74 1035.94 1035.23 1034.62 1034.11 1033.66 1033.23 1032.79 1032.31 1031.76 1031.14 1030.46 1029.73 1029.00 1028.29 1027.63 1027.04 1026.53 1026.09 1025.71 1025.38 1025.06 1024.72 1024.35 1023.93 1023.45 1022.93 1022.38 1021.81 1021.25
1037.18 1038.26 1039.24 1040.09 1040.76 1041.24 1041.49 1041.51 1041.29 1040.86 1040.26 1039.52 1038.70 1037.87 1037.06 1036.31 1035.65 1035.08 1034.57 1034.10 1033.64 1033.16 1032.62 1032.02 1031.35 1030.62 1029.86 1029.09 1028.34 1027.66 1027.04 1026.51 1026.05 1025.66 1025.31 1024.97 1024.63 1024.26 1023.84 1023.38 1022.89 1022.37 1021.84 1021.32
1039.41 1040.15 1040.75 1041.22 1041.54 1041.71 1041.71 1041.56 1041.24 1040.77 1040.18 1039.50 1038.77 1038.03 1037.31 1036.63 1036.01 1035.44 1034.93 1034.43 1033.93 1033.39 1032.81 1032.16 1031.44 1030.68 1029.89 1029.10 1028.34 1027.63 1027.00 1026.45 1025.98 1025.58 1025.22 1024.88 1024.55 1024.19 1023.80 1023.37 1022.91 1022.43 1021.95 1021.48
1041.11 1041.51 1041.77 1041.90 1041.92 1041.84 1041.67 1041.39 1041.03 1040.57 1040.04 1039.45 1038.81 1038.16 1037.51 1036.89 1036.29 1035.72 1035.18 1034.64 1034.09 1033.50 1032.87 1032.18 1031.44 1030.67 1029.87 1029.08 1028.32 1027.62 1026.98 1026.43 1025.96 1025.56 1025.20 1024.88 1024.56 1024.22 1023.86 1023.47 1023.05 1022.62 1022.18 1021.75
1042.31 1042.41 1042.37 1042.24 1042.04 1041.79 1041.50 1041.18 1040.81 1040.41 1039.95 1039.45 1038.90 1038.32 1037.73 1037.13 1036.53 1035.93 1035.34 1034.75 1034.15 1033.52 1032.85 1032.15 1031.40 1030.64 1029.86 1029.09 1028.36 1027.68 1027.06 1026.53 1026.06 1025.67 1025.33 1025.02 1024.72 1024.42 1024.09 1023.74 1023.36 1022.97 1022.56 1022.16
1043.06 1042.93 1042.68 1042.37 1042.02 1041.68 1041.35 1041.03 1040.71 1040.37 1039.99 1039.57 1039.10 1038.57 1038.00 1037.39 1036.77 1036.13 1035.48 1034.83 1034.17 1033.50 1032.82 1032.11 1031.39 1030.66 1029.92 1029.20 1028.51 1027.86 1027.29 1026.77 1026.33 1025.96 1025.64 1025.35 1025.08 1024.81 1024.52 1024.20 1023.86 1023.49 1023.11 1022.73
1043.45 1043.18 1042.80 1042.39 1041.99 1041.63 1041.31 1041.03 1040.77 1040.51 1040.21 1039.85 1039.42 1038.92 1038.34 1037.71 1037.03 1036.33 1035.63 1034.92 1034.22 1033.52 1032.83 1032.15 1031.46 1030.78 1030.10 1029.44 1028.80 1028.21 1027.67 1027.20 1026.78 1026.43 1026.13 1025.87 1025.62 1025.38 1025.13 1024.84 1024.53 1024.19 1023.83 1023.45
1043.58 1043.25 1042.83 1042.40 1042.01 1041.67 1041.41 1041.19 1041.01 1040.81 1040.57 1040.26 1039.85 1039.34 1038.74 1038.06 1037.33 1036.57 1035.81 1035.05 1034.32 1033.62 1032.94 1032.29 1031.65 1031.03 1030.42 1029.82 1029.25 1028.71 1028.22 1027.78 1027.39 1027.06 1026.78 1026.54 1026.32 1026.10 1025.87 1025.62 1025.33 1025.01 1024.65 1024.27
1043.56 1043.22 1042.82 1042.43 1042.09 1041.82 1041.62 1041.47 1041.35 1041.21 1041.01 1040.71 1040.31 1039.78 1039.15 1038.42 1037.64 1036.83 1036.02 1035.24 1034.50 1033.80 1033.16 1032.55 1031.97 1031.42 1030.88 1030.35 1029.84 1029.35 1028.89 1028.48 1028.11 1027.79 1027.52 1027.29 1027.08 1026.89 1026.68 1026.44 1026.17 1025.86 1025.52 1025.14
1043.46 1043.17 1042.83 1042.49 1042.22 1042.01 1041.88 1041.79 1041.71 1041.60 1041.41 1041.12 1040.70 1040.15 1039.48 1038.72 1037.91 1037.07 1036.25 1035.46 1034.73 1034.07 1033.46 1032.91 1032.40 1031.92 1031.44 1030.98 1030.51 1030.06 1029.64 1029.24 1028.88 1028.56 1028.29 1028.06 1027.85 1027.65 1027.45 1027.23 1026.97 1026.67 1026.34 1025.96
1043.37 1043.13 1042.85 1042.58 1042.36 1042.21 1042.11 1042.05 1041.99 1041.88 1041.69 1041.38 1040.94 1040.37 1039.69 1038.91 1038.09 1037.26 1036.44 1035.68 1034.99 1034.38 1033.84 1033.35 1032.91 1032.48 1032.07 1031.66 1031.24 1030.81 1030.40 1030.00 1029.63 1029.30 1029.01 1028.76 1028.54 1028.33 1028.12 1027.89 1027.64 1027.35 1027.02 1026.65
1043.31 1043.12 1042.89 1042.67 1042.48 1042.35 1042.27 1042.21 1042.13 1042.00 1041.79 1041.46 1041.00 1040.42 1039.73 1038.97 1038.17 1037.36 1036.59 1035.89 1035.26 1034.71 1034.23 1033.82 1033.44 1033.08 1032.71 1032.34 1031.95 1031.54 1031.13 1030.72 1030.33 1029.97 1029.65 1029.36 1029.10 1028.86 1028.63 1028.38 1028.12 1027.82 1027.50 1027.14
1043.31 1043.15 1042.94 1042.73 1042.55 1042.42 1042.31 1042.22 1042.11 1041.95 1041.70 1041.35 1040.88 1040.30 1039.62 1038.89 1038.14 1037.39 1036.69 1036.05 1035.50 1035.02 1034.62 1034.27 1033.95 1033.64 1033.33 1032.98 1032.61 1032.21 1031.80 1031.37 1030.95 1030.55 1030.18 1029.84 1029.53 1029.24 1028.96 1028.68 1028.39 1028.08 1027.74 1027.38
1043.35 1043.19 1042.98 1042.77 1042.57 1042.40 1042.26 1042.12 1041.96 1041.75 1041.47 1041.10 1040.62 1040.06 1039.42 1038.73 1038.04 1037.36 1036.74 1036.18 1035.70 1035.30 1034.97 1034.68 1034.42 1034.15 1033.87 1033.55 1033.19 1032.79 1032.37 1031.92 1031.47 1031.03 1030.60 1030.20 1029.83 1029.48 1029.14 1028.80 1028.47 1028.12 1027.76 1027.38
1043.39 1043.22 1042.99 1042.76 1042.53 1042.32 1042.13 1041.94 1041.74 1041.49 1041.18 1040.79 1040.32 1039.78 1039.18 1038.55 1037.92 1037.32 1036.77 1036.29 1035.88 1035.54 1035.26 1035.02 1034.79 1034.56 1034.30 1034.00 1033.65 1033.26 1032.82 1032.36 1031.88 1031.39 1030.92 1030.46 1030.02 1029.60 1029.19 1028.78 1028.38 1027.98 1027.57 1027.17
1043.39 1043.19 1042.95 1042.70 1042.44 1042.20 1041.98 1041.75 1041.51 1041.23 1040.90 1040.50 1040.04 1039.53 1038.98 1038.40 1037.84 1037.30 1036.81 1036.39 1036.03 1035.73 1035.49 1035.27 1035.06 1034.85 1034.60 1034.31 1033.97 1033.58 1033.14 1032.66 1032.16 1031.65 1031.13 1030.62 1030.11 1029.62 1029.13 1028.65 1028.18 1027.70 1027.24 1026.78
1043.29 1043.09 1042.84 1042.58 1042.32 1042.07 1041.83 1041.58 1041.32 1041.03 1040.69 1040.30 1039.86 1039.38 1038.86 1038.33 1037.81 1037.32 1036.87 1036.48 1036.15 1035.87 1035.63 1035.41 1035.21 1034.99 1034.74 1034.45 1034.11 1033.72 1033.29 1032.81 1032.30 1031.77 1031.23 1030.67 1030.11 1029.56 1029.00 1028.44 1027.89 1027.34 1026.79 1026.27
1043.08 1042.89 1042.66 1042.42 1042.18 1041.94 1041.71 1041.46 1041.21 1040.92 1040.59 1040.21 1039.79 1039.33 1038.84 1038.34 1037.85 1037.38 1036.95 1036.56 1036.22 1035.93 1035.67 1035.44 1035.21 1034.97 1034.71 1034.41 1034.07 1033.68 1033.25 1032.78 1032.28 1031.74 1031.18 1030.60 1030.00 1029.39 1028.77 1028.15 1027.52 1026.89 1026.27 1025.67
Thickness
5431 5430 5427 5426 5425 5421 5420 5430 5439 5446 5440 5435 5426 5418 5412 5408 5404 5399 5395 5392 5388 5385 5382 5378 5374 5371 5368 5366 5364 5361 5359 5356 5353 5350 5347 5344 5341 5339 5336 5334 5332 5330 5328 5327
5416 5418 5415 5412 5416 5413 5409 5410 5414 5418 5418 5413 5406 5401 5397 5393 5389 5386 5383 5380 5376 5372 5368 5365 5361 5358 5355 5353 5350 5348 5346 5344 5341 5338 5335 5332 5329 5326 5324 5322 5320 5319 5317 5316
5413 5406 5403 5411 5408 5402 5397 5393 5396 5401 5402 5394 5392 5390 5386 5381 5377 5374 5371 5368 5364 5360 5356 5352 5348 5345 5342 5340 5337 5335 5334 5331 5328 5326 5323 5320 5317 5314 5312 5311 5309 5308 5306 5305
5395 5393 5400 5404 5387 5384 5381 5377 5375 5375 5377 5377 5375 5372 5370 5366 5363 5361 5358 5354 5350 5347 5343 5339 5336 5333 5329 5327 5325 5323 5321 5319 5316 5314 5311 5309 5306 5304 5301 5299 5298 5297 5296 5295
5383 5390 5398 5389 5372 5364 5366 5370 5362 5359 5361 5360 5354 5358 5361 5352 5348 5345 5343 5340 5337 5334 5331 5328 5324 5321 5318 5315 5313 5312 5310 5307 5305 5302 5300 5298 5295 5293 5291 5289 5288 5286 5286 5285
5371 5379 5388 5376 5355 5348 5353 5364 5350 5344 5345 5342 5342 5356 5358 5339 5333 5331 5329 5326 5324 5321 5319 5316 5313 5310 5307 5305 5303 5301 5299 5296 5293 5291 5289 5287 5285 5283 5281 5279 5278 5276 5275 5274
5359 5363 5366 5340 5332 5339 5352 5351 5327 5324 5324 5324 5326 5330 5325 5320 5319 5317 5316 5313 5311 5309 5307 5304 5301 5298 5296 5294 5292 5290 5287 5285 5282 5280 5278 5276 5274 5272 5270 5269 5267 5266 5265 5264
5345 5349 5348 5316 5318 5323 5322 5312 5309 5309 5308 5306 5305 5305 5306 5306 5306 5305 5303 5302 5299 5297 5294 5291 5289 5287 5285 5283 5281 5278 5276 5274 5272 5270 5268 5266 5264 5262 5260 5259 5257 5256 5256 5255
5318 5324 5309 5300 5298 5295 5293 5294 5294 5294 5292 5290 5291 5293 5293 5293 5293 5292 5291 5289 5287 5285 5283 5280 5277 5275 5274 5272 5269 5267 5266 5264 5262 5260 5258 5256 5255 5253 5251 5250 5249 5248 5247 5247
5299 5302 5294 5288 5285 5282 5281 5280 5279 5278 5277 5277 5278 5279 5280 5280 5280 5280 5279 5277 5275 5273 5271 5269 5267 5264 5263 5260 5258 5256 5255 5254 5252 5250 5249 5247 5245 5244 5243 5242 5241 5240 5239 5238
5286 5286 5281 5280 5273 5269 5267 5266 5266 5266 5266 5265 5266 5266 5266 5267 5267 5267 5266 5264 5263 5262 5260 5258 5256 5254 5252 5249 5248 5247 5246 5244 5243 5241 5240 5239 5237 5236 5235 5234 5233 5232 5232 5230
5278 5269 5266 5267 5260 5256 5255 5254 5254 5254 5255 5255 5254 5254 5255 5255 5255 5254 5253 5252 5251 5250 5249 5247 5245 5243 5241 5239 5238 5237 5236 5235 5233 5232 5231 5230 5229 5228 5227 5226 5226 5225 5224 5223
5253 5251 5250 5248 5246 5244 5243 5243 5243 5242 5242 5243 5243 5242 5243 5243 5244 5242 5241 5240 5239 5239 5237 5236 5234 5233 5231 5229 5228 5228 5227 5226 5225 5224 5223 5223 5222 5221 5221 5220 5218 5217 5216 5215
5237 5237 5239 5238 5235 5233 5232 5232 5232 5232 5232 5232 5232 5232 5232 5232 5232 5232 5230 5229 5228 5227 5226 5225 5225 5223 5222 5220 5219 5219 5218 5218 5217 5217 5216 5216 5215 5214 5213 5213 5212 5211 5209 5208
5226 5225 5226 5225 5224 5223 5223 5223 5223 5223 5223 5223 5222 5221 5221 5221 5221 5221 5220 5219 5218 5218 5217 5216 5215 5215 5213 5211 5211 5211 5210 5210 5209 5209 5209 5208 5207 5206 5205 5205 5204 5203 5202 5201
5214 5214 5214 5213 5213 5213 5213 5213 5212 5213 5213 5212 5212 5212 5211 5211 5210 5211 5210 5209 5209 5209 5208 5208 5207 5207 5205 5204 5204 5204 5203 5203 5202 5201 5201 5200 5199 5199 5198 5197 5196 5196 5195 5193
5204 5206 5205 5204 5204 5203 5203 5202 5201 5201 5201 5202 5202 5202 5202 5202 5202 5202 5201 5200 5199 5199 5200 5200 5200 5199 5198 5198 5197 5197 5196 5196 5195 5194 5193 5193 5192 5191 5191 5189 5189 5188 5187 5185
5192 5193 5192 5192 5193 5192 5192 5192 5192 5191 5191 5191 5191 5192 5192 5192 5192 5192 5191 5191 5191 5191 5191 5191 5191 5191 5191 5191 5190 5190 5189 5189 5188 5188 5187 5185 5185 5184 5182 5181 5180 5179 5179 5177
5184 5184 5184 5183 5182 5182 5182 5182 5182 5182 5181 5181 5182 5182 5183 5182 5182 5182 5182 5181 5182 5183 5184 5183 5183 5184 5184 5183 5183 5183 5182 5182 5181 5180 5179 5179 5177 5176 5174 5173 5173 5172 5171 5169
5177 5177 5176 5176 5175 5174 5174 5173 5173 5173 5173 5172 5173 5173 5174 5174 5174 5174 5174 5174 5174 5174 5174 5175 5175 5176 5176 5176 5176 5176 5175 5174 5174 5173 5172 5171 5170 5168 5167 5166 5165 5164 5163 5162
5169 5169 5168 5168 5168 5167 5166 5165 5164 5164 5165 5164 5164 5164 5165 5165 5165 5166 5166 5168 5167 5166 5167 5167 5167 5168 5168 5168 5168 5168 5167 5166 5166 5165 5164 5163 5161 5160 5159 5159 5158 5157 5156 5155
5160 5160 5160 5159 5159 5159 5158 5156 5156 5156 5157 5156 5156 5156 5157 5158 5159 5159 5158 5158 5159 5159 5159 5159 5159 5160 5161 5161 5160 5159 5159 5158 5157 5156 5155 5154 5153 5153 5152 5151 5150 5149 5149 5148
5152 5151 5151 5150 5150 5149 5149 5149 5148 5148 5148 5148 5148 5149 5149 5149 5149 5150 5151 5150 5151 5151 5151 5151 5151 5152 5153 5152 5152 5151 5150 5149 5149 5148 5147 5146 5145 5144 5144 5143 5143 5142 5142 5142
5144 5143 5142 5141 5141 5141 5142 5142 5141 5141 5140 5140 5140 5140 5140 5141 5142 5141 5140 5141 5142 5142 5142 5143 5144 5144 5144 5143 5143 5142 5142 5141 5140 5140 5139 5138 5137 5136 5135 5135 5135 5135 5135 5135
5135 5134 5134 5133 5134 5134 5133 5133 5133 5133 5133 5133 5133 5132 5132 5131 5132 5132 5132 5132 5133 5133 5134 5134 5134 5134 5133 5133 5133 5133 5133 5132 5132 5132 5131 5130 5130 5129 5128 5128 5128 5128 5129 5129
5127 5127 5126 5125 5125 5124 5124 5124 5124 5124 5124 5125 5125 5124 5124 5123 5123 5123 5123 5123 5123 5124 5124 5124 5124 5124 5124 5124 5124 5124 5123 5124 5124 5124 5124 5123 5123 5122 5122 5122 5122 5122 5123 5123
5120 5120 5119 5119 5118 5117 5116 5115 5115 5115 5115 5115 5115 5115 5115 5115 5115 5115 5115 5115 5115 5115 5114 5114 5114 5114 5114 5114 5115 5115 5115 5116 5116 5116 5117 5117 5117 5117 5117 5116 5117 5117 5117 5118